Stations météo

réclame
Mon MeteoGroup
Ronchi Dei Legionari, Italie (16108): Température de l'air & dewpoint: 19.09.2018 11:00:00 - 25.09.2018 11:00:00 (CEST)Ronchi Dei Legionari, Italie (16108): Vitesse du vent: 19.09.2018 11:00:00 - 25.09.2018 11:00:00 (CEST)Ronchi Dei Legionari, Italie (16108): Direction du vent: 19.09.2018 11:00:00 - 25.09.2018 11:00:00 (CEST)Ronchi Dei Legionari, Italie (16108): reduced air pressure: 19.09.2018 11:00:00 - 25.09.2018 11:00:00 (CEST)Ronchi Dei Legionari, Italie (16108): visibility: 19.09.2018 11:00:00 - 25.09.2018 11:00:00 (CEST)Ronchi Dei Legionari, Italie (16108): Quantités de précipitations: 19.09.2018 11:00:00 - 25.09.2018 11:00:00 (CEST)
Date & Time tt [°C] td [°C] ff [km/h] ff [knt] dd ppp [hPa] vv [km] rr [mm]
25.09.2018 11:00:00 18,5 0,0 5 3 - 1032,7 10 0,0
25.09.2018 10:00:00 15,0 4,0 8 4 - - 10 -
25.09.2018 09:00:00 12,0 5,0 8 4 N - 10 -
25.09.2018 08:00:00 8,3 3,5 4 2 N 1031,5 10 -
25.09.2018 07:00:00 6,0 3,0 8 4 NNE - 10 -
25.09.2018 06:00:00 10,0 2,0 8 4 N - 10 -
25.09.2018 05:00:00 8,7 2,8 11 6 N 1030,6 10 0,0
25.09.2018 04:00:00 8,0 3,0 11 6 N - 10 -
25.09.2018 03:00:00 10,0 2,0 5 3 N - 10 -
25.09.2018 02:00:00 10,2 3,1 9 5 E 1030,4 10 -
25.09.2018 01:00:00 13,0 2,0 5 3 ESE - 10 -
25.09.2018 00:00:00 13,0 3,0 13 7 ESE - 10 -
24.09.2018 23:00:00 15,3 2,8 16 9 E 1028,7 10 0,0
24.09.2018 22:00:00 16,0 4,0 22 12 E - 10 -
24.09.2018 21:00:00 17,0 4,0 22 12 E - 10 -
24.09.2018 20:00:00 17,1 3,4 18 10 E 1025,3 10 -
24.09.2018 19:00:00 18,0 4,0 28 15 ESE - 10 -
24.09.2018 18:00:00 20,0 3,0 24 13 E - 10 -
24.09.2018 17:00:00 20,9 3,8 24 13 E 1021,7 10 0,0
24.09.2018 16:00:00 21,0 5,0 28 15 E - 10 -
24.09.2018 15:00:00 22,0 6,0 29 16 E - 10 -
24.09.2018 14:00:00 22,4 7,6 24 13 ENE 1020,5 10 -
24.09.2018 13:00:00 23,0 7,0 22 12 E - 10 -
24.09.2018 12:00:00 22,0 9,0 18 10 ENE - 10 -
24.09.2018 11:00:00 21,8 10,1 16 9 E 1017,8 10 0,0
24.09.2018 10:00:00 21,0 13,0 16 9 E - 10 -
24.09.2018 09:00:00 21,0 19,0 9 5 E - 10 -
24.09.2018 08:00:00 19,3 18,2 4 2 N 1011,6 10 -
24.09.2018 07:00:00 20,0 20,0 2 1 - - 6 -
24.09.2018 06:00:00 21,0 20,0 5 3 NNW - 4,7 -
24.09.2018 05:00:00 20,5 19,8 4 2 - 1009,3 4,7 0,0
24.09.2018 04:00:00 21,0 20,0 5 3 NW - 7 -
24.09.2018 03:00:00 21,0 20,0 5 3 - - 10 -
24.09.2018 02:00:00 21,2 19,9 4 2 N 1009,5 9 -
24.09.2018 01:00:00 22,0 20,0 2 1 - - 10 -
24.09.2018 00:00:00 21,0 20,0 9 5 ESE - 10 -
23.09.2018 23:00:00 22,0 20,0 9 5 W 1012,9 10 0,0
23.09.2018 22:00:00 23,0 21,0 11 6 SSW - 10 -
23.09.2018 21:00:00 23,0 20,0 9 5 S - 10 -
23.09.2018 20:00:00 22,6 20,2 5 3 S 1014,2 10 -
23.09.2018 19:00:00 22,0 19,0 5 3 NNE - 10 -
23.09.2018 18:00:00 23,0 19,0 8 4 N - 10 -
23.09.2018 17:00:00 22,7 18,2 11 6 N 1016,1 10 0,0
23.09.2018 16:00:00 23,0 18,0 9 5 N - 10 -
23.09.2018 15:00:00 22,0 17,0 11 6 N - 10 -
23.09.2018 14:00:00 20,5 17,4 8 4 N 1018,1 10 -
23.09.2018 13:00:00 20,0 16,0 11 6 N - 10 -
23.09.2018 12:00:00 19,0 16,0 11 6 N - 10 -
23.09.2018 11:00:00 18,9 15,9 8 4 N 1019,1 10 0,0
23.09.2018 10:00:00 18,0 15,0 5 3 NNE - 10 -
23.09.2018 09:00:00 17,0 15,0 8 4 NNE - 10 -
23.09.2018 08:00:00 16,6 14,8 4 2 - 1018,3 10 -
23.09.2018 07:00:00 16,0 14,0 5 3 NNE - 10 -
23.09.2018 06:00:00 15,0 14,0 8 4 NNE - 10 -
23.09.2018 05:00:00 15,4 13,6 8 4 NE 1018,2 10 0,0
23.09.2018 04:00:00 16,0 14,0 4 2 - - 10 -
23.09.2018 03:00:00 16,0 13,0 8 4 ENE - 10 -
23.09.2018 02:00:00 15,6 12,7 8 4 NNE 1019,4 10 -
23.09.2018 01:00:00 16,0 11,0 8 4 NE - 10 -
23.09.2018 00:00:00 17,0 10,0 8 4 NNE - 10 -
22.09.2018 23:00:00 18,1 9,6 8 4 ENE 1019,7 10 0,0
22.09.2018 22:00:00 18,0 10,0 5 3 NNE - 10 -
22.09.2018 21:00:00 18,0 10,0 15 8 ENE - 10 -
22.09.2018 20:00:00 18,5 11,6 5 3 NE 1019,1 10 -
22.09.2018 19:00:00 19,0 11,0 15 8 ENE - 10 -
22.09.2018 18:00:00 19,0 12,0 15 8 E - 10 -
22.09.2018 17:00:00 19,7 11,7 18 10 E 1018,3 10 0,0
22.09.2018 16:00:00 21,0 13,0 22 12 E - 10 -
22.09.2018 15:00:00 21,0 14,0 18 10 NE - 10 -
22.09.2018 14:00:00 22,2 15,2 26 14 ESE 1017,1 10 -
22.09.2018 13:00:00 26,0 21,0 11 6 S - 10 -
22.09.2018 12:00:00 25,0 21,0 9 5 SE - 7 -
22.09.2018 11:00:00 22,7 19,8 9 5 ESE 1016,5 7 0,0
22.09.2018 10:00:00 22,0 18,0 8 4 E - 5 -
22.09.2018 09:00:00 22,0 17,0 9 5 E - 10 -
22.09.2018 08:00:00 20,6 16,4 11 6 E 1015,3 10 -
22.09.2018 07:00:00 20,0 15,0 8 4 E - 10 -
22.09.2018 06:00:00 20,0 15,0 9 5 E - 10 -
22.09.2018 05:00:00 19,8 15,7 5 3 ENE 1014,7 10 0,0
22.09.2018 04:00:00 19,0 16,0 8 4 E - 10 -
22.09.2018 03:00:00 20,0 17,0 2 1 - - 10 -
22.09.2018 02:00:00 19,2 16,8 9 5 E 1014,6 10 -
22.09.2018 01:00:00 18,0 17,0 4 2 ENE - 10 -
22.09.2018 00:00:00 19,0 17,0 5 3 ENE - 10 -
21.09.2018 23:00:00 19,1 17,3 9 5 E 1014,7 10 0,0
21.09.2018 22:00:00 21,0 19,0 9 5 E - 10 -
21.09.2018 21:00:00 22,0 20,0 8 4 SE - 10 -
21.09.2018 20:00:00 23,0 20,0 9 5 SE 1013,9 10 -
21.09.2018 19:00:00 25,0 19,0 5 3 S - 10 -
21.09.2018 18:00:00 27,0 15,0 13 7 SSW - 10 -
21.09.2018 17:00:00 28,6 14,8 13 7 SSW 1013,9 10 0,0
21.09.2018 16:00:00 29,0 16,0 13 7 SSW - 10 -
21.09.2018 15:00:00 29,0 15,0 11 6 SSW - 10 -
21.09.2018 14:00:00 29,2 15,6 5 3 - 1015,0 10 -
21.09.2018 13:00:00 29,0 15,0 8 4 S - 10 -
21.09.2018 12:00:00 28,0 15,0 5 3 SSE - 10 -
21.09.2018 11:00:00 26,8 17,1 4 2 - 1015,7 10 0,0
21.09.2018 10:00:00 25,0 17,0 4 2 - - 10 -
21.09.2018 09:00:00 21,0 17,0 4 2 - - 10 -
21.09.2018 08:00:00 17,6 15,7 8 4 NNE 1016,1 10 -
21.09.2018 07:00:00 16,0 15,0 8 4 N - 10 -
21.09.2018 06:00:00 16,0 15,0 5 3 NNE - 10 -
21.09.2018 05:00:00 15,9 14,6 5 3 N 1016,0 10 0,0
21.09.2018 04:00:00 17,0 15,0 4 2 - - 10 -
21.09.2018 03:00:00 16,0 15,0 5 3 N - 10 -
21.09.2018 02:00:00 16,8 15,1 5 3 NNE 1016,9 10 -
21.09.2018 01:00:00 18,0 15,0 4 2 - - 10 -
21.09.2018 00:00:00 18,0 16,0 4 2 - - 10 -
20.09.2018 23:00:00 18,9 16,2 4 2 - 1017,6 10 0,0
20.09.2018 22:00:00 21,0 16,0 5 3 WSW - 10 -
20.09.2018 21:00:00 23,0 16,0 2 1 - - 10 -
20.09.2018 20:00:00 23,0 15,9 2 1 - 1017,1 10 -
20.09.2018 19:00:00 28,0 16,0 9 5 E - 10 -
20.09.2018 18:00:00 30,0 16,0 2 1 - - 10 -
20.09.2018 17:00:00 30,7 15,2 5 3 S 1016,9 10 0,0
20.09.2018 16:00:00 31,0 14,0 11 6 S - 10 -
20.09.2018 15:00:00 30,0 15,0 8 4 S - 10 -
20.09.2018 14:00:00 30,2 14,2 16 9 ESE 1018,2 10 -
20.09.2018 13:00:00 30,0 15,0 18 10 ESE - 10 -
20.09.2018 12:00:00 29,0 16,0 21 11 ESE - 10 -
20.09.2018 11:00:00 27,9 16,0 2 1 - 1019,7 10 0,0
20.09.2018 10:00:00 25,0 17,0 8 4 NNE - 10 -
20.09.2018 09:00:00 22,0 17,0 9 5 NNE - 10 -
20.09.2018 08:00:00 19,6 16,7 9 5 NNE 1019,2 10 -
20.09.2018 07:00:00 18,0 16,0 4 2 - - 10 -
20.09.2018 06:00:00 19,0 16,0 4 2 - - 10 -
20.09.2018 05:00:00 20,3 16,8 8 4 N 1019,0 10 0,0
20.09.2018 04:00:00 20,0 17,0 11 6 NNE - 10 -
20.09.2018 03:00:00 19,0 17,0 5 3 NE - 10 -
20.09.2018 02:00:00 19,5 17,5 9 5 NNE 1019,6 10 -
20.09.2018 01:00:00 20,0 18,0 9 5 N - 10 -
20.09.2018 00:00:00 21,0 18,0 4 2 NNW - 10 -
19.09.2018 23:00:00 20,5 17,9 8 4 NNE 1020,1 10 0,0
19.09.2018 22:00:00 21,0 18,0 8 4 NNE - 10 -
19.09.2018 21:00:00 21,0 17,0 4 2 - - 10 -
19.09.2018 20:00:00 23,4 16,7 9 5 NNE 1019,8 10 -
19.09.2018 19:00:00 25,0 20,0 8 4 SSW - 10 -
19.09.2018 18:00:00 27,0 20,0 11 6 SW - 10 -
19.09.2018 17:00:00 27,3 19,1 11 6 SSW 1018,7 10 0,0
19.09.2018 16:00:00 28,0 19,0 15 8 SW - 10 -
19.09.2018 15:00:00 28,0 20,0 9 5 SW - 10 -
19.09.2018 14:00:00 27,9 17,7 5 3 W 1019,3 10 -
19.09.2018 13:00:00 27,0 17,0 4 2 - - 10 -
19.09.2018 12:00:00 26,0 17,0 4 2 - - 10 -
19.09.2018 11:00:00 25,1 18,0 4 2 - 1020,2 10 0,0

tt = Température de l'air
td = dewpoint
ff = Vitesse du vent
dd = Direction du vent
ppp = reduced air pressure
vv = visibility
rr = Quantités de précipitations

stations d'obs. à proximité